Content
SEND FEEDBACK

Daily
Averages
Monthly
Summary
United States of America

DEDEDO, GUAM


Home > North America > United States > Guam
Elevation: 364 feet     Latitude: 13 33N     Longitude: 144 49E

WEATHER
 
SELECT A DAY
Number of Records: 213,719;   Date Range: 1/1/95 - 10/18/14
 
SHARE

PRINT THIS DATA

[ ← Previous Day ]
WEATHER ALMANAC - NOVEMBER 29, 2013
[ Next Day → ]
[ °C ]   °F
Weather ElementAverageHighLow
Temperature82.6 °F88 °F (10:54 am)75.9 °F (5:54 am)
Dewpoint73.6 °F75.2 °F (12:33 pm)71.1 °F (9:54 am)
Humidity74.7 %91 % (5:54 am)59 % (10:54 am)
Barometer29.88 in29.94 in (8:54 am)29.82 in (2:54 pm)
Wind Speed7.3 mph11.5 mph (1:54 pm)
Weather ElementAverage
Visibility10 mi
Wind DirectionENE (73.3 °)

Weather ElementTotal
Precipitation---
Cooling Degree Days17 (Base 65)
Growing Degree Days32 (Base 50)
Averaged from 24 records on November 29, 2013
WEATHER CONDITIONS BREAKOUT
WIND DIRECTION BREAKOUT
WEATHER BY HOUR - NOVEMBER 29, 2013
[ °C ]   °F
Local TimeTemperatureDewpointHumidityBarometerVisibilityWind DirectionWind SpeedGust SpeedPrecipitationEventsConditions
1:54 AM78.1 °F73.0 °F84 %29.88 in10.0 miENE (60°)5.8 mphClear
2:54 AM79.0 °F73.9 °F84 %29.88 in10.0 miNE (50°)4.6 mphClear
3:54 AM80.1 °F73.9 °F81 %29.87 in10.0 miENE (60°)6.9 mphClear
4:54 AM79.0 °F73.0 °F82 %29.88 in10.0 miEast (90°)4.6 mphClear
5:54 AM75.9 °F73.0 °F91 %29.89 in10.0 miENE (60°)4.6 mphClear
6:54 AM78.1 °F73.9 °F87 %29.90 in10.0 miNE (50°)4.6 mphScattered Clouds
7:54 AM82.0 °F75.0 °F79 %29.93 in10.0 miEast (80°)5.8 mphClear
8:54 AM84.9 °F73.9 °F69 %29.94 in10.0 miENE (60°)9.2 mphClear
9:54 AM86.0 °F71.1 °F61 %29.94 in10.0 miEast (80°)8.1 mphPartly Cloudy
10:54 AM88.0 °F72.0 °F59 %29.92 in10.0 miNE (40°)9.2 mphPartly Cloudy
11:54 AM86.0 °F73.0 °F65 %29.89 in10.0 miENE (70°)9.2 mphScattered Clouds
12:33 PM86.0 °F75.2 °F70 %29.89 in10.0 miNE (40°)8.1 mphMostly Cloudy
12:54 PM88.0 °F73.0 °F61 %29.86 in10.0 miENE (70°)9.2 mphScattered Clouds
1:54 PM87.1 °F73.9 °F65 %29.83 in10.0 miESE (110°)11.5 mphPartly Cloudy
2:54 PM86.0 °F73.0 °F65 %29.82 in10.0 miEast (100°)9.2 mphClear
3:54 PM86.0 °F73.0 °F65 %29.82 in10.0 miEast (80°)6.9 mphPartly Cloudy
4:54 PM84.0 °F73.9 °F72 %29.83 in10.0 miEast (100°)6.9 mphClear
5:54 PM82.0 °F73.9 °F76 %29.84 in10.0 miEast (90°)6.9 mphClear
6:54 PM82.0 °F73.9 °F76 %29.86 in10.0 miENE (70°)8.1 mphClear
7:54 PM80.1 °F73.9 °F81 %29.88 in10.0 miEast (80°)4.6 mphClear
8:54 PM81.0 °F73.9 °F79 %29.89 in10.0 miEast (90°)5.8 mphPartly Cloudy
9:54 PM81.0 °F75.0 °F82 %29.89 in10.0 miEast (80°)9.2 mphPartly Cloudy
10:54 PM81.0 °F73.9 °F79 %29.89 in10.0 miEast (80°)6.9 mphClear
11:54 PM80.1 °F73.0 °F79 %29.88 in10.0 miENE (70°)9.2 mphClear
Hourly data recorded from PGUM, located miles away from Dededo, Guam







STORIES FROM OUR PARTNERS